2026-027C

Last updated on Sun Mar 15 2026 00:02:06 GMT+0000 (Coordinated Universal Time)

1 67748U 26027C 26073.57876409 .00008540 00000+0 42390-3 0 9990 2 67748 97.4910 202.5512 0011031 182.1427 177.9761 15.17887626 4601
UTC large
Height (km)
Speed (km/s)
/
Latitude / Longitude
Inclination (degrees)
Orbital Period (minutes)
Azimuth
Elevation
Range (km)
Doppler Factor

Next 0 passes for location: London (51.5072 / 0.1276)

Sorry there are no passes over London.